Weather History for Fairbanks, AK

Change the Weather History Date:

Friday, August 17, 2012

  Actual Average Record
Temperature  
Mean Temperature 56 °F 56 °F  
Max Temperature 65 °F 66 °F 82 °F (2007)
Min Temperature 46 °F 46 °F 28 °F (1943)
Degree Days  
Heating Degree Days 9 9  
Month to date heating degree days 114 122  
Since 1 June heating degree days 364 390  
Since 1 July heating degree days 249 230  
Cooling Degree Days 0 0  
Month to date cooling degree days 0 0  
Year to date cooling degree days 34 55  
Since 1 June cooling degree days 34 54  
Growing Degree Days 6 (Base 50)    
Moisture  
Dew Point 48 °F    
Average Humidity 75    
Maximum Humidity 97    
Minimum Humidity 39    
Precipitation  
Precipitation 0.01 in 0.06 in 0.45 in (1937)
Month to date precipitation 0.26 1.10  
Year to date precipitation 6.02 6.79  
Snow  
Snow 0.00 in 0.00 in 0.00 in (2002)
Month to date snowfall 0.0 0.0  
Since 1 June snowfall 0.0 0.0  
Since 1 July snowfall 0.0 0.0  
Snow Depth 0.00 in    
Sea Level Pressure  
Sea Level Pressure 29.82 in    
Wind  
Wind Speed 2 mph (SSW)    
Max Wind Speed 6 mph    
Max Gust Speed -    
Visibility 10 miles    
Events Rain    
T = Trace of Precipitation, MM = Missing Value Source: NWS Daily Summary

Daily Weather History Graph

Daily Weather History Graph

Search for Another Location

Airport:

Trip Planner

Search our weather history database for the weather conditions in past years. The results will help you decide how hot, cold, wet, or windy it might be!

Date:

Astronomy

Aug. 17, 2012 Rise Set
Actual Time 5:46 AM AKDT 10:01 PM AKDT
Civil Twilight 4:41 AM AKDT 11:06 PM AKDT
Nautical Twilight 2:27 AM AKDT 1:19 AM AKDT
Astronomical Twilight Sun does not rise Sun does not rise
Moon 6:30 AM AKDT (8/17) 9:04 PM AKDT (8/17)
Length of Visible Light 18h 25m
Length of Day
16h 14m
New Moon, 0% of the Moon is Illuminated
Aug 17
New Moon
Aug 24
First Quarter
Aug 31
Full
Sep 8
Last Quarter
Sep 15
New

Hourly Weather History & Observations

Time (AKDT) Temp. Dew Point Humidity Pressure Visibility Wind Dir Wind Speed Gust Speed Precip Events Conditions
12:53 AM 55.0 °F 51.1 °F 86% 29.83 in 10.0 mi NE 5.8 mph - N/A   Mostly Cloudy
1:53 AM 54.0 °F 50.0 °F 86% 29.84 in 10.0 mi NNW 3.5 mph - N/A   Mostly Cloudy
2:53 AM 53.1 °F 50.0 °F 89% 29.84 in 10.0 mi Calm Calm - N/A   Mostly Cloudy
3:53 AM 51.1 °F 50.0 °F 96% 29.84 in 10.0 mi Calm Calm - N/A   Mostly Cloudy
4:53 AM 50.0 °F 48.0 °F 93% 29.85 in 10.0 mi South 3.5 mph - N/A   Mostly Cloudy
5:53 AM 48.9 °F 46.9 °F 93% 29.86 in 10.0 mi Calm Calm - N/A   Mostly Cloudy
6:53 AM 52.0 °F 50.0 °F 93% 29.86 in 10.0 mi South 3.5 mph - N/A   Mostly Cloudy
7:53 AM 53.1 °F 51.1 °F 93% 29.86 in 10.0 mi Calm Calm - N/A   Mostly Cloudy
8:53 AM 53.1 °F 51.1 °F 93% 29.86 in 10.0 mi Calm Calm - N/A   Mostly Cloudy
9:53 AM 54.0 °F 51.1 °F 90% 29.86 in 10.0 mi Calm Calm - N/A   Mostly Cloudy
10:53 AM 55.0 °F 52.0 °F 89% 29.86 in 10.0 mi South 3.5 mph - 0.01 in Rain Light Rain
11:53 AM 57.9 °F 50.0 °F 75% 29.84 in 10.0 mi Calm Calm - 0.00 in   Mostly Cloudy
12:53 PM 60.1 °F 48.9 °F 67% 29.84 in 10.0 mi Calm Calm - 0.00 in Rain Light Rain
1:53 PM 63.0 °F 46.9 °F 56% 29.83 in 10.0 mi Calm Calm - 0.00 in   Mostly Cloudy
2:53 PM 61.0 °F 44.1 °F 54% 29.81 in 10.0 mi South 4.6 mph - N/A   Mostly Cloudy
3:53 PM 63.0 °F 44.1 °F 50% 29.80 in 10.0 mi South 4.6 mph - N/A   Mostly Cloudy
4:53 PM 63.0 °F 41.0 °F 45% 29.79 in 10.0 mi WSW 3.5 mph - N/A   Mostly Cloudy
5:53 PM 64.0 °F 41.0 °F 43% 29.78 in 10.0 mi SW 4.6 mph - N/A   Mostly Cloudy
6:53 PM 63.0 °F 42.1 °F 46% 29.78 in 10.0 mi South 3.5 mph - N/A   Mostly Cloudy
7:53 PM 62.1 °F 42.1 °F 48% 29.78 in 10.0 mi SSW 3.5 mph - N/A   Mostly Cloudy
8:53 PM 59.0 °F 45.0 °F 60% 29.78 in 10.0 mi Calm Calm - N/A   Mostly Cloudy
9:53 PM 54.0 °F 50.0 °F 86% 29.79 in 10.0 mi Calm Calm - N/A   Mostly Cloudy
10:53 PM 54.0 °F 45.0 °F 72% 29.79 in 10.0 mi Calm Calm - N/A   Mostly Cloudy
11:53 PM 46.9 °F 46.0 °F 97% 29.80 in 10.0 mi NE 3.5 mph - N/A   Mostly Cloudy